Theta_e
280 280 280 280 279 280 279 279 279 279 279 279 279 279 279 279 279 279 279 279 280 280 278 278 278 278 278 277 277 277 277 277 277 277 277 277 277 277 277 277 277 277 277 277 277 277 276 276 276 276 276 276 276 276 276 276 276 276 276 277 278 278
280 280 280 280 280 280 281 281 281 280 280 280 279 278 278 277 278 278 278 278 279 278 278 277 277 278 277 277 277 277 277 276 276 276 276 277 277 276 276 276 276 276 276 276 276 276 276 276 276 276 275 275 275 275 275 276 275 275 275 276 276 278
280 280 280 281 280 280 280 279 279 280 279 278 278 278 278 278 278 278 278 278 277 277 277 277 277 276 277 276 276 276 276 276 277 276 276 276 276 276 276 276 276 276 276 275 276 275 275 275 275 275 275 275 275 275 275 275 275 275 275 275 275 275
280 280 280 279 280 280 280 280 280 280 280 280 280 280 279 278 278 278 277 277 277 276 276 276 276 276 276 276 276 275 275 275 275 275 275 275 275 275 275 275 275 275 275 275 275 275 274 274 274 274 275 274 274 274 276 275 275 274 274 275 274 275
280 280 280 281 281 282 282 282 283 283 281 280 279 278 277 277 278 277 277 277 277 276 275 276 275 275 275 275 275 274 274 274 274 275 274 274 274 274 274 274 274 274 274 273 274 273 273 274 273 274 274 274 274 274 274 275 275 274 274 274 274 274
280 281 281 282 283 283 283 283 282 281 279 278 277 277 277 277 277 277 277 276 275 275 275 275 274 274 274 274 274 273 274 274 274 274 274 274 273 273 273 273 273 273 272 272 272 272 272 273 273 273 273 274 274 274 274 274 274 274 274 274 274 274
281 282 283 283 283 282 281 280 279 279 279 278 278 278 277 277 277 277 276 275 275 275 275 274 274 274 274 273 273 273 273 273 273 273 273 272 272 272 272 272 271 271 271 271 271 272 272 272 272 272 272 273 273 273 273 274 274 274 274 274 274 276
282 282 281 281 280 280 280 280 279 279 279 279 277 277 277 277 276 275 275 275 275 275 274 274 273 274 273 273 273 273 273 273 272 272 272 271 270 271 271 270 270 271 270 271 271 271 271 271 271 271 271 271 272 272 272 272 273 273 274 274 274 275
280 280 280 280 280 280 280 280 280 279 278 278 278 277 277 276 276 275 275 274 274 274 274 273 273 273 273 273 273 272 272 271 271 270 270 270 269 269 269 269 269 270 270 270 270 270 269 269 270 270 270 270 271 271 271 272 272 272 273 273 273 274
280 279 280 279 280 280 280 280 280 279 279 278 277 276 276 277 276 275 275 274 274 273 273 273 273 272 272 272 271 271 270 270 269 269 269 268 268 268 268 268 268 268 268 269 268 268 268 268 268 269 269 269 270 271 271 271 271 271 271 272 272 272
279 279 279 279 279 279 279 279 277 276 276 276 276 275 276 276 275 274 274 273 273 273 273 273 272 272 271 271 270 269 269 268 268 267 267 267 267 267 267 267 267 266 266 266 266 266 267 267 267 268 268 269 270 271 271 271 271 271 271 271 271 272
280 280 279 278 279 279 278 277 277 277 277 276 275 275 274 275 274 274 273 273 272 272 272 271 271 270 270 269 268 267 266 266 266 266 265 265 265 265 266 265 265 265 265 265 265 265 265 266 266 268 271 273 272 272 271 271 271 271 271 271 270 271
280 279 278 279 278 279 278 278 277 276 276 275 274 274 274 274 273 272 272 272 271 271 270 269 268 268 267 267 266 264 264 265 263 262 263 262 263 263 264 264 264 264 264 264 264 264 264 265 265 269 272 274 274 273 272 271 271 271 271 270 270 270
279 278 279 279 278 278 278 277 276 276 276 274 274 274 273 272 272 271 270 270 270 269 268 268 267 266 265 265 264 263 262 262 261 261 261 261 262 263 262 263 263 263 263 263 263 263 263 264 267 270 272 273 274 274 272 272 271 271 270 270 270 270
279 279 279 278 278 278 278 277 276 276 275 274 274 272 271 271 270 270 269 269 268 267 267 266 264 263 262 262 262 261 260 260 261 260 260 260 260 261 261 262 262 262 263 263 262 262 263 263 266 270 272 273 274 274 274 271 271 270 270 269 269 268
279 279 279 279 279 278 277 277 277 276 275 274 272 271 270 270 269 268 268 267 266 266 266 264 262 262 262 261 261 261 260 259 259 259 260 260 261 261 261 260 261 261 261 262 261 261 262 262 265 270 272 272 273 274 274 271 270 269 268 268 268 267
278 278 277 277 277 276 276 275 275 274 272 272 270 269 269 268 268 267 267 265 265 264 263 264 262 261 261 261 260 259 259 259 259 260 260 259 261 260 260 260 259 260 260 260 260 261 261 261 267 270 271 272 273 274 274 270 269 268 267 268 268 268
278 278 278 277 276 275 276 275 273 272 271 269 269 268 267 266 266 266 265 264 264 263 264 262 261 261 260 261 259 258 260 259 258 259 259 259 259 258 259 259 259 259 259 260 259 259 260 261 267 269 270 272 273 274 270 269 268 267 267 267 267 268
279 278 277 275 276 275 275 273 272 271 269 268 266 266 265 265 264 265 265 263 263 263 262 263 261 260 259 259 259 257 258 259 258 258 258 258 259 259 258 258 258 259 259 259 259 259 259 259 264 268 270 271 273 271 269 268 268 267 267 267 268 268
276 275 276 275 274 273 272 271 270 269 268 267 265 265 265 264 265 264 263 263 262 263 262 262 259 260 258 258 257 257 259 258 257 257 257 258 258 258 257 258 258 258 258 258 258 258 258 259 263 268 269 270 271 271 269 268 267 267 267 267 268 268
275 275 273 273 272 271 270 269 268 268 267 266 265 265 264 264 264 264 263 263 262 262 260 260 259 259 258 257 258 257 257 256 256 257 256 257 256 257 257 257 257 257 257 258 258 261 261 259 261 266 268 270 271 270 269 269 268 267 267 267 267 268
272 272 272 272 272 269 267 267 268 267 267 265 264 264 264 265 264 264 263 263 262 261 259 259 259 259 257 258 257 256 256 256 256 256 256 256 256 256 256 257 257 256 257 257 258 258 259 259 259 261 268 270 271 272 270 269 268 267 267 267 267 267
275 275 274 274 271 267 267 267 267 267 265 264 264 264 265 264 263 262 262 262 260 258 258 258 257 256 256 256 255 256 255 255 257 256 255 256 256 255 256 256 256 256 257 257 258 258 259 259 259 261 268 270 271 273 272 269 269 268 268 268 268 268
272 271 270 269 268 267 266 267 268 267 264 264 265 265 264 263 262 262 260 259 259 258 257 256 255 256 255 254 254 254 255 254 254 255 255 255 255 255 255 255 256 256 256 257 258 258 258 260 262 261 266 270 271 273 274 271 270 271 271 270 270 270
272 272 272 268 267 266 266 266 267 265 264 265 266 264 262 262 261 261 260 258 257 256 255 254 254 254 254 254 254 254 254 254 253 253 254 254 254 254 254 254 255 255 256 256 257 258 259 259 260 265 265 269 272 273 274 274 274 275 273 271 270 270
273 272 269 267 266 266 266 266 267 265 264 266 264 262 261 261 260 259 258 256 255 254 254 253 253 253 252 252 253 252 253 253 253 253 252 254 254 254 254 255 255 255 255 255 256 258 259 260 261 264 269 269 272 274 275 275 275 276 273 272 272 272
272 271 268 266 265 265 265 265 267 264 264 264 262 262 260 259 258 257 255 254 253 252 252 251 251 251 250 252 252 252 253 253 251 253 253 253 254 254 254 254 254 254 255 256 257 259 260 262 264 265 268 271 272 274 274 275 275 276 276 273 272 272
268 268 267 265 264 264 263 263 265 265 264 261 261 261 259 257 256 255 254 252 251 252 251 251 252 251 252 252 252 253 253 253 253 253 254 254 254 253 253 254 254 254 256 257 259 261 263 264 265 266 267 269 270 271 273 274 275 275 275 275 273 275
269 268 267 266 263 263 262 261 261 262 260 260 260 260 257 256 256 256 254 254 253 251 250 251 252 252 252 251 252 252 253 253 252 253 254 254 253 253 253 254 255 256 257 259 261 262 264 265 266 267 267 268 268 269 270 272 272 274 275 273 272 273
270 269 267 267 265 263 262 261 261 259 259 259 260 257 256 256 256 256 254 252 250 252 251 252 255 255 253 253 252 252 253 252 253 253 253 254 254 254 254 254 256 258 260 261 262 262 264 266 267 267 267 268 269 271 272 272 272 271 271 271 271 271
269 270 268 269 266 263 262 262 261 259 259 260 257 256 256 256 255 253 252 251 250 251 253 253 252 252 253 252 252 252 253 253 253 254 255 257 257 257 257 257 258 260 261 262 263 265 266 266 266 267 271 271 274 272 272 271 270 271 270 271 273 270
269 269 268 267 264 263 263 262 261 259 261 259 257 256 256 256 255 253 254 253 252 250 251 252 251 251 252 251 252 252 253 258 262 261 259 259 264 267 269 268 264 265 268 268 268 268 266 266 268 272 274 274 274 275 274 273 273 273 270 271 272 268
267 267 266 266 264 263 263 262 260 259 259 258 257 257 256 256 256 256 256 254 254 253 253 252 252 252 252 252 252 252 253 253 256 262 265 266 266 268 269 270 271 272 272 270 268 269 271 272 272 272 273 274 274 273 273 273 272 271 270 270 265 261
266 266 267 266 263 263 262 261 260 258 257 257 256 257 256 255 256 256 256 255 254 255 255 254 253 253 253 253 253 253 253 252 252 254 260 264 265 266 267 268 270 271 271 270 270 268 267 269 271 272 273 273 272 272 272 271 270 269 269 268 265 257
267 267 266 263 262 261 260 260 258 257 257 257 256 256 255 255 256 256 256 255 255 255 255 254 254 254 253 252 252 252 251 252 251 252 253 257 263 265 265 267 268 269 268 269 269 270 269 270 271 272 272 272 271 271 271 270 268 267 267 265 258 255
264 264 263 261 260 259 258 258 257 257 257 256 256 256 256 256 256 257 256 255 255 254 254 253 253 253 253 253 253 252 253 252 253 252 253 254 254 256 260 262 264 265 266 267 268 269 269 269 270 271 272 271 270 270 269 268 262 265 265 262 256 256
262 260 260 259 258 258 258 259 257 257 256 256 255 256 256 256 256 255 255 256 256 255 254 254 255 254 253 253 253 253 252 253 253 254 254 253 253 253 254 255 256 260 263 263 265 266 268 269 269 270 270 270 269 269 267 264 256 255 256 256 254 255
260 259 258 258 257 258 258 258 257 257 257 256 255 256 256 256 256 256 256 255 255 255 255 254 253 254 254 253 253 253 253 253 254 254 253 253 254 254 254 254 255 256 260 263 265 265 266 268 269 269 269 268 268 267 264 255 254 254 254 255 255 255
Wind_Speed
5 5 5 5 4 4 4 4 3 3 3 3 4 6 5 5 4 4 3 4 5 5 5 5 5 5 5 4 5 5 7 7 6 6 5 5 5 6 7 7 7 7 7 6 6 6 6 5 5 5 5 4 5 5 5 5 4 5 6 6 6 6
6 7 7 6 6 5 4 4 3 4 4 4 4 4 4 4 4 4 5 3 4 4 5 5 5 4 5 4 6 7 7 5 5 5 6 6 5 5 5 6 6 7 8 7 7 7 7 7 5 6 6 6 5 6 7 6 5 6 6 7 5 5
7 6 5 5 4 4 4 4 5 5 4 4 5 7 5 5 4 4 4 4 4 5 5 5 5 5 5 6 6 6 5 5 5 5 4 4 6 5 6 6 6 6 6 6 7 7 8 8 9 8 7 7 8 7 6 7 7 8 8 7 8 5
7 5 4 4 4 4 4 4 4 4 5 5 5 4 4 5 4 4 4 4 4 5 5 4 4 5 6 6 6 6 5 4 5 4 4 5 4 5 5 6 5 5 5 5 6 6 7 7 7 7 7 8 10 9 7 8 8 8 9 7 9 8
7 7 7 7 7 7 6 5 5 5 5 4 4 5 4 4 4 3 3 4 5 5 4 5 5 5 5 5 4 4 4 3 4 3 4 4 4 4 4 5 4 5 5 5 5 6 6 6 6 6 6 7 7 9 9 8 8 9 10 11 11 10
5 6 7 8 8 7 7 6 5 4 4 4 4 4 4 4 3 3 4 4 5 4 5 5 4 5 4 4 3 3 3 3 3 3 4 3 4 4 4 3 4 4 5 4 5 5 5 6 6 6 6 7 8 9 10 9 9 9 9 10 11 11
8 10 9 8 7 5 6 5 5 5 4 4 4 5 4 2 1 3 3 4 5 4 5 4 4 4 3 3 3 3 3 4 4 3 4 4 5 4 4 4 4 4 5 6 6 7 6 7 7 8 8 7 7 8 9 9 9 9 10 10 11 10
8 7 7 7 6 7 6 5 5 5 5 5 4 4 3 1 2 3 3 3 5 4 5 3 3 3 3 3 3 3 4 4 4 4 4 5 6 5 5 6 6 6 6 7 6 6 7 7 8 8 9 9 9 9 9 10 10 10 11 11 11 11
10 10 7 7 7 6 6 6 6 5 5 4 4 3 3 3 3 3 4 3 4 4 3 3 2 3 3 3 3 3 4 4 4 5 6 5 5 6 7 6 6 6 7 7 7 8 9 8 8 8 8 8 9 9 10 10 10 11 11 11 11 11
8 7 9 8 8 6 6 6 6 6 6 6 4 3 3 3 4 4 4 4 4 3 3 2 2 3 3 3 3 3 4 4 4 5 5 4 6 6 6 7 7 7 6 7 7 8 7 8 7 7 7 8 8 9 10 9 10 11 11 11 11 11
10 10 10 9 7 8 7 6 4 4 3 3 3 3 4 4 5 5 5 4 4 3 3 2 3 2 2 3 3 4 5 5 4 4 4 4 4 5 4 6 7 6 7 6 6 7 7 6 7 6 7 9 10 9 10 11 10 11 12 12 11 10
9 10 10 8 9 9 7 6 6 6 6 4 3 3 3 6 5 7 5 4 4 3 3 3 3 3 2 3 4 4 3 3 4 4 4 4 4 4 4 5 5 5 6 7 7 6 6 6 5 9 17 15 12 13 11 12 12 12 13 13 14 13
9 8 9 10 10 10 9 8 7 6 5 5 5 5 5 5 6 5 6 5 4 4 3 3 3 3 3 3 3 2 3 4 3 3 3 3 3 4 4 5 5 5 6 6 7 7 6 6 6 16 17 18 20 14 13 12 12 12 13 12 13 13
10 10 12 12 10 9 8 8 7 6 6 6 7 6 5 5 5 6 5 5 4 3 4 3 3 3 3 3 3 3 3 3 3 3 4 3 4 4 3 5 5 6 6 6 6 7 7 6 11 17 18 19 19 17 13 11 11 11 11 12 12 12
12 13 12 9 10 10 10 8 8 8 8 8 6 6 5 5 5 5 5 4 4 3 3 3 3 2 3 3 3 2 3 3 3 4 4 4 3 3 4 5 6 6 6 7 8 8 7 7 13 18 20 20 20 20 17 11 11 11 11 11 12 12
8 9 10 10 9 9 6 7 8 7 6 7 6 7 5 6 4 5 5 4 3 3 3 3 3 2 1 1 1 1 2 3 3 3 2 3 3 4 4 4 5 5 6 7 8 8 8 7 13 19 20 20 21 20 18 11 10 10 11 12 12 12
9 6 5 7 7 6 7 5 5 7 6 7 7 5 7 5 6 5 5 5 4 3 2 3 2 1 1 1 1 1 2 3 3 3 3 3 4 5 5 5 5 5 5 7 7 8 9 8 17 19 21 20 21 21 18 10 10 10 10 11 12 12
11 12 12 6 6 6 7 8 7 9 8 5 7 6 5 6 5 6 5 5 4 3 3 2 1 1 1 1 1 2 3 3 3 4 4 3 3 3 3 4 3 6 7 7 7 8 10 9 17 20 20 21 20 22 11 9 10 10 10 11 12 12
9 8 5 6 7 8 8 7 8 8 8 7 5 5 5 5 5 5 5 4 4 3 2 2 1 1 1 1 2 3 3 3 4 3 3 4 4 4 4 4 5 5 7 8 7 9 10 9 14 19 20 20 22 17 8 9 7 10 12 12 12 13
3 3 7 8 6 6 6 8 9 9 8 7 6 5 6 4 5 5 5 5 4 3 2 2 1 1 1 1 2 2 2 2 2 3 2 4 5 6 5 5 6 5 6 7 8 7 10 10 13 20 20 21 21 18 11 8 7 7 9 12 11 11
6 6 5 6 8 7 7 8 9 9 8 7 7 5 5 5 5 6 6 5 4 3 3 1 1 0 0 1 2 2 3 3 4 3 3 4 4 5 5 5 7 7 6 6 8 12 13 11 12 18 19 21 20 16 10 8 8 7 9 10 11 10
7 5 6 9 10 8 9 8 8 7 8 7 6 6 6 7 7 5 4 4 4 3 2 1 0 0 1 2 2 2 3 3 3 4 4 4 4 5 5 6 6 8 8 7 8 8 8 11 10 11 21 20 21 21 13 8 7 8 11 10 11 11
10 12 13 9 9 10 9 8 8 8 6 7 6 8 8 5 5 5 5 4 4 3 2 1 1 1 1 1 2 2 3 3 4 4 4 5 5 4 6 7 7 8 9 7 7 8 8 8 11 11 19 20 21 22 19 9 9 11 11 11 11 10
6 4 3 5 10 9 9 9 9 7 7 6 9 8 4 6 6 6 4 4 3 2 1 1 1 1 2 2 1 3 4 3 3 3 4 4 4 6 7 6 7 8 9 7 7 7 9 10 14 12 16 20 21 21 23 13 10 13 12 12 9 10
8 10 9 7 9 9 9 9 9 8 7 10 10 5 6 6 6 6 4 4 3 2 1 1 1 2 1 2 3 3 4 4 3 4 4 5 5 6 7 7 7 8 9 8 6 6 8 9 9 16 14 18 21 22 21 23 19 24 15 12 12 12
9 8 5 7 8 9 9 12 12 9 10 12 4 6 5 6 5 5 4 4 3 2 1 1 2 2 2 3 3 2 4 4 4 4 4 4 5 6 7 6 6 7 8 9 9 7 7 8 8 11 17 17 22 22 23 24 25 25 16 14 11 11
12 10 7 7 8 8 9 8 12 10 12 5 7 7 8 6 6 5 4 4 3 2 2 2 3 3 3 3 2 3 4 4 3 4 3 4 4 5 6 7 5 6 8 8 9 9 8 8 8 8 12 20 21 23 24 25 26 26 26 17 11 11
4 6 9 7 7 8 7 8 9 14 9 6 7 7 7 7 6 5 5 4 3 3 2 3 3 3 3 4 3 4 4 4 4 4 5 4 5 5 6 7 6 6 7 8 8 8 9 9 9 9 9 10 14 17 22 26 25 25 25 24 20 27
8 10 10 12 9 9 8 8 6 5 6 8 8 8 7 7 6 5 4 4 4 3 3 3 3 3 3 3 3 4 4 4 3 4 5 5 6 6 5 6 6 7 6 6 8 9 9 9 8 8 9 10 11 10 11 12 12 19 21 14 12 14
11 12 11 13 12 10 9 8 8 6 7 7 8 8 8 7 6 6 5 4 4 3 3 4 4 4 4 4 3 4 4 4 4 4 6 6 6 5 6 5 7 7 6 8 9 8 8 8 7 8 9 10 9 10 10 10 10 10 10 11 12 13
11 13 13 13 8 9 9 9 7 7 9 9 8 9 8 7 5 5 4 3 3 4 3 4 4 4 4 4 4 5 5 5 4 6 7 8 7 7 8 7 8 9 10 9 7 6 6 7 8 8 14 15 19 17 13 11 10 10 10 16 24 17
12 11 11 7 6 9 9 9 8 8 7 8 8 9 9 8 6 5 5 4 4 4 4 4 4 4 5 4 5 5 5 8 12 9 7 7 12 18 19 16 9 9 8 7 6 5 7 7 9 18 22 21 21 21 22 21 22 22 18 20 24 15
10 9 9 9 9 10 10 9 10 10 9 9 9 9 9 8 7 6 5 6 6 6 5 5 5 4 5 5 4 4 5 6 7 10 13 15 14 15 16 16 19 19 17 10 6 7 16 18 19 20 20 21 20 20 21 21 21 21 20 21 15 10
9 12 14 8 9 10 10 10 9 10 9 8 8 8 8 8 8 10 10 9 7 6 6 5 4 4 4 4 4 5 4 3 6 9 8 8 9 12 14 17 17 15 11 11 12 10 7 12 16 19 20 19 19 18 19 20 21 19 18 17 16 7
12 10 7 8 9 9 10 10 10 9 9 9 9 9 9 9 9 10 8 8 8 5 5 5 4 4 4 4 4 4 4 4 3 5 8 10 10 11 11 12 10 6 7 12 15 16 14 14 15 18 18 17 17 17 17 19 19 16 15 14 8 5
5 6 7 8 9 10 9 10 9 10 9 9 8 9 10 11 12 10 8 7 8 7 5 5 4 4 5 4 5 5 5 4 4 4 4 5 9 12 5 2 3 7 11 13 16 16 15 15 16 16 16 16 16 16 17 17 12 13 11 10 6 6
5 6 7 9 9 9 10 10 9 8 8 9 10 10 9 11 11 9 6 7 5 6 5 4 4 5 4 4 5 5 4 5 4 4 4 4 4 5 7 11 8 6 8 9 11 13 14 15 15 15 14 15 15 15 16 14 9 11 8 6 2 3
6 5 6 7 8 8 8 8 7 8 9 10 11 11 10 9 8 7 5 6 6 6 5 4 5 5 5 5 5 5 5 5 5 5 4 4 4 5 6 7 8 8 10 15 12 12 14 15 15 14 14 14 14 14 13 8 8 8 8 8 8 7
Wind_Direction
202 198 201 202 199 188 177 164 154 142 137 142 133 134 138 138 129 121 108 100 95 95 94 97 82 73 72 64 61 56 51 41 34 33 23 11 10 11 7 7 8 6 5 5 359 360 360 356 351 347 343 337 331 324 319 315 319 321 319 316 319 314
200 197 193 192 194 188 186 169 155 159 158 139 130 120 118 110 116 117 108 118 119 109 90 71 77 68 69 62 57 51 49 40 35 26 23 14 6 15 6 11 5 1 358 358 354 352 353 352 353 351 347 344 341 334 331 322 320 314 309 307 300 303
199 199 199 199 197 190 174 168 169 168 161 153 156 138 137 121 137 120 126 118 102 92 84 75 67 59 56 55 49 52 43 36 33 31 18 5 15 9 5 8 360 356 353 348 349 349 347 349 346 349 345 343 338 337 330 327 329 323 318 314 310 304
195 197 197 195 180 193 191 196 167 161 157 154 147 128 128 127 124 123 130 116 105 89 84 77 69 63 51 52 43 40 37 26 27 23 16 26 2 11 1 0 353 351 346 349 343 345 344 341 342 337 342 336 334 331 332 328 324 317 311 311 308 311
189 190 189 190 193 194 190 184 180 171 161 152 138 128 154 151 158 148 131 98 82 73 76 71 57 56 50 51 43 37 33 26 25 28 28 24 7 6 4 351 352 346 345 346 343 342 341 340 336 337 333 329 325 321 319 319 318 316 317 317 313 312
186 187 195 196 198 193 188 190 186 180 171 160 145 159 184 198 176 124 86 84 77 79 74 66 57 60 56 52 46 39 31 32 31 28 31 31 8 7 355 355 353 349 347 345 343 342 339 337 337 335 333 325 324 318 315 315 313 309 308 305 307 312
194 201 195 192 193 193 192 190 188 180 188 174 179 201 206 194 102 90 86 98 91 75 78 65 61 65 53 50 43 36 36 36 31 26 24 21 10 6 359 1 360 353 353 353 346 344 345 343 340 337 332 328 321 316 314 315 313 311 307 304 302 302
200 199 199 191 194 195 193 193 189 188 189 199 194 194 192 185 103 108 106 110 100 88 78 69 61 58 51 48 39 39 36 34 29 23 22 19 4 4 6 1 1 356 353 349 346 344 343 342 338 334 329 324 324 321 318 315 313 310 308 306 304 303
206 204 193 196 198 196 190 186 192 193 190 186 190 185 170 164 140 133 119 110 110 101 97 82 68 67 55 51 44 44 38 32 26 23 21 13 7 5 1 359 357 355 351 344 347 345 341 337 334 330 324 323 323 317 313 312 310 308 308 305 306 307
200 194 200 201 204 196 193 193 191 189 183 190 189 175 164 156 141 137 126 125 115 116 122 100 100 75 64 58 54 51 40 30 27 24 15 14 10 10 360 358 353 347 347 343 344 336 335 331 329 324 321 317 315 312 310 310 308 306 304 301 299 298
197 197 200 203 196 193 195 187 180 172 175 172 165 158 176 154 134 134 136 129 129 134 130 118 94 84 78 65 57 49 31 28 25 20 16 17 12 5 357 356 348 338 342 338 333 330 329 328 322 324 319 317 315 314 310 309 307 305 303 302 302 301
197 199 198 197 197 196 188 184 189 186 178 177 162 146 149 137 144 142 143 138 136 131 120 110 93 76 70 55 47 42 27 30 22 17 17 17 9 356 356 349 340 341 334 330 323 325 323 316 316 308 311 313 313 313 312 309 306 307 307 307 308 307
204 199 197 201 199 195 187 189 190 179 172 164 158 158 163 147 145 143 143 139 136 119 105 93 77 69 62 52 47 33 26 24 14 17 17 13 4 356 355 340 337 341 326 320 319 318 316 309 303 308 313 313 313 311 308 306 306 305 306 305 305 306
203 202 204 203 197 190 188 187 182 168 177 165 167 164 151 142 141 139 133 128 118 106 96 93 84 70 56 46 30 24 17 14 8 11 8 358 359 353 345 341 336 326 320 314 312 309 310 304 306 312 313 313 312 312 309 307 305 304 303 303 303 303
204 205 206 197 193 191 196 178 165 183 172 169 169 143 144 140 135 128 122 119 112 107 104 97 84 73 53 42 26 17 8 13 3 6 358 356 343 335 342 332 327 318 317 313 312 312 309 300 309 312 313 313 314 313 312 304 303 302 304 305 304 302
213 211 203 196 195 194 176 171 176 175 160 151 142 149 147 135 128 126 130 124 121 121 114 99 88 73 62 47 26 16 8 10 3 345 334 335 339 342 328 320 317 314 312 313 311 308 308 299 309 313 313 314 313 312 312 306 309 308 304 301 299 298
207 200 195 204 192 166 146 165 152 137 138 148 147 150 140 137 135 135 142 138 133 125 115 108 104 94 82 38 31 15 5 360 343 347 346 350 336 331 323 321 316 309 308 308 308 305 304 301 310 313 313 313 312 312 314 313 310 302 298 296 297 297
197 195 203 176 147 166 172 168 153 148 152 142 146 147 144 142 140 147 145 143 143 140 135 126 117 98 71 33 16 17 353 349 342 335 333 331 315 294 297 294 295 302 305 304 304 303 301 302 310 312 312 311 312 314 314 308 300 301 299 298 297 296
197 197 157 157 170 164 175 152 150 144 142 146 152 145 147 142 151 166 162 152 152 144 134 116 103 69 32 24 10 355 341 335 328 326 322 319 306 307 303 296 298 298 300 302 300 300 297 297 308 309 309 311 312 314 297 298 295 297 295 291 295 294
164 152 166 163 165 163 143 148 149 147 148 154 155 149 155 158 180 173 165 162 155 140 121 109 100 61 15 11 346 322 310 307 301 298 304 305 308 305 296 300 299 291 292 294 294 292 295 295 302 306 308 309 309 309 306 297 275 259 281 293 288 292
165 155 135 147 160 162 150 150 149 148 159 161 163 160 166 190 184 178 176 167 150 127 123 118 113 103 345 317 299 300 302 302 294 290 293 280 283 286 297 298 296 294 287 281 284 292 294 291 296 301 303 306 306 307 297 293 288 274 280 290 288 276
119 134 154 178 185 153 154 152 153 159 162 169 159 172 194 200 191 176 149 138 132 127 123 125 129 180 250 274 290 293 281 285 294 287 293 292 285 292 296 292 289 291 289 287 285 284 283 289 288 292 300 304 306 306 303 293 287 280 281 270 273 280
175 180 190 187 157 155 157 156 152 171 170 163 171 204 204 182 153 148 148 136 130 127 132 134 156 234 267 250 264 276 284 281 285 295 296 295 297 293 294 291 289 287 287 285 282 282 281 276 286 288 296 301 304 306 307 291 283 282 281 278 273 270
195 176 142 153 158 161 163 161 169 172 167 168 205 207 154 150 151 145 142 142 139 140 139 174 247 236 242 268 267 279 275 265 268 279 287 288 293 295 289 291 290 289 289 286 282 280 282 281 282 287 293 298 302 306 308 304 287 292 291 291 285 283
193 202 192 164 164 165 171 165 173 178 174 199 211 154 152 151 149 149 147 142 146 152 179 208 235 264 248 258 254 257 276 281 286 283 283 288 289 284 288 287 289 292 293 294 286 280 281 283 280 287 290 295 304 308 308 306 306 306 304 295 286 281
199 198 177 172 173 175 174 174 178 183 188 214 144 145 143 148 148 145 144 150 161 164 198 236 254 249 249 252 263 266 273 283 278 281 274 277 278 284 287 285 286 292 294 302 303 294 285 282 281 281 294 304 310 313 313 311 309 307 302 296 291 293
196 190 183 185 182 185 185 187 182 178 201 188 141 156 156 153 147 147 160 171 178 188 225 254 247 251 255 253 234 256 265 275 266 280 267 266 277 274 281 282 281 283 291 295 296 300 297 291 288 291 296 310 315 315 313 311 310 310 310 306 293 288
188 177 191 195 192 192 190 196 179 186 199 142 158 153 152 149 147 162 181 188 186 207 211 240 264 256 248 252 235 231 242 248 264 267 280 273 268 263 265 277 278 276 279 281 289 293 298 299 298 298 299 303 307 305 304 305 310 311 310 309 305 303
189 198 196 202 200 194 196 192 202 181 136 162 152 151 146 149 161 172 181 194 201 207 199 215 255 268 256 239 242 239 244 240 241 249 266 261 266 265 260 265 269 274 268 266 285 291 299 298 298 307 309 308 301 295 294 297 297 308 313 308 298 304
204 206 200 210 200 192 188 189 189 166 152 149 153 142 143 153 168 180 193 201 194 211 204 214 239 240 255 250 233 251 259 245 225 235 248 251 250 256 263 255 262 262 264 277 287 283 277 294 309 307 305 298 297 304 307 307 318 325 320 316 317 314
208 214 205 216 185 178 185 190 180 167 157 149 147 147 149 164 169 175 187 194 184 226 221 218 223 225 234 255 255 243 233 245 249 250 256 242 230 233 247 257 252 259 269 261 254 271 297 308 303 300 308 313 317 319 326 332 326 323 327 324 322 320
209 215 216 211 164 180 188 185 166 158 162 151 152 153 159 165 165 173 201 194 204 222 226 230 229 227 230 235 249 264 275 248 254 249 241 243 256 257 252 250 243 248 268 285 289 299 300 304 303 310 316 317 320 329 329 328 332 336 334 332 337 339
209 210 211 198 173 182 184 181 169 164 171 160 160 163 166 160 169 181 195 192 212 210 211 217 228 225 226 232 237 242 264 299 292 283 280 276 273 272 276 278 281 286 289 291 304 310 307 306 310 314 316 320 330 333 332 334 342 344 343 348 357 359
207 207 213 187 175 181 178 178 177 175 172 167 164 164 161 168 174 183 187 188 195 206 209 210 220 231 233 241 237 240 252 266 301 307 301 287 280 289 292 289 288 285 287 303 311 312 307 311 313 317 319 329 336 335 334 339 348 347 349 356 6 352
209 209 190 168 175 172 176 178 182 175 174 171 167 164 168 178 184 182 190 186 175 202 206 211 217 229 225 241 243 248 234 252 261 291 310 315 308 300 289 295 293 286 300 314 316 316 316 316 319 319 325 336 340 338 340 345 349 347 351 356 359 350
188 185 174 170 173 172 172 182 181 180 173 167 168 171 179 177 181 191 189 195 188 187 209 208 218 221 232 226 231 233 238 244 243 253 271 302 322 331 333 198 298 300 305 309 313 317 318 320 323 323 333 343 344 344 348 351 342 341 358 6 347 335
167 167 167 162 164 171 183 188 180 174 167 166 168 173 184 176 173 177 185 189 184 199 208 210 212 216 221 225 231 234 237 243 244 244 252 266 281 284 292 307 305 300 291 300 305 310 317 323 325 327 341 348 348 349 355 351 348 353 347 354 343 320
161 160 156 161 170 176 183 195 175 170 171 168 165 171 184 184 176 183 185 189 200 205 209 212 212 215 218 225 236 230 235 233 235 240 244 254 256 261 279 280 284 294 306 307 305 314 321 325 329 332 347 350 349 355 5 358 349 340 337 334 334 337